Location: Hokitika
(42.7170°S, 170.9670°E)
Time: 00:19:51
(UTC+13:00)

Cosmos 2333 Rocket - Pass Details

Date: 24 January 2019
Orbit: 840 x 862 km, 70.8° (Epoch: 19 February)

Event Time Altitude Azimuth Distance (km) Brightness Sun altitude
Exits shadow 23:35:02 38° 58° (ENE) 1,293 2.7 -20.9°
Maximum altitude 23:35:40 40° 74° (ENE) 1,266 2.7 -21.0°
Drops below altitude 10° 23:41:03 10° 141° (SE) 2,527 4.9 -21.5°
Sets 23:43:39 0° 148° (SSE) 3,468 5.7 -21.8°
